Russellville, AR

8:25 PM CDT on May 25, 2018 (GMT -0500)
Russellville Regional

Weather History for KRUE - June, 2013

Change the Weather History Date:

Friday, June 28, 2013

  Actual Average (KHOT) Record (KHOT)
Temperature  
Mean Temperature 90 °F -  
Max Temperature 100 °F 91 °F 105 °F (1952)
Min Temperature 75 °F 68 °F 57 °F (2003)
Cooling Degree Days 24    
Growing Degree Days 40 (Base 50)    
Moisture  
Dew Point 68 °F    
Average Humidity 56    
Maximum Humidity 88    
Minimum Humidity 25    
Precipitation  
Precipitation 0.00 in - - ()
Sea Level Pressure  
Sea Level Pressure 29.81 in    
Wind  
Wind Speed 4 mph (NNW)    
Max Wind Speed 14 mph    
Max Gust Speed 21 mph    
Visibility 10 miles    
Events      
Averages and records for this station are not official NWS values.
T = Trace of Precipitation, MM = Missing Value Source: NWS Daily Summary

Daily Weather History Graph

Daily Weather History Graph

Search for Another Location

Airport or City:

Astronomy

Jun. 28, 2013 Rise Set
Actual Time 6:00 AM CDT 8:31 PM CDT
Civil Twilight 5:30 AM CDT 9:00 PM CDT
Nautical Twilight 4:53 AM CDT 9:37 PM CDT
Astronomical Twilight 4:12 AM CDT 10:18 PM CDT
Moon No Moon Rise 11:54 AM CDT (6/28)
Length of Visible Light 15h 30m
Length of Day
14h 30m
Waning Gibbous, 66% of the Moon is Illuminated
Jun 28
Waning Gibbous
Jun 29
Last Quarter
Jul 8
New
Jul 15
First Quarter
Jul 22
Full

Hourly Weather History & Observations

Time (CDT) Temp. Heat Index Dew Point Humidity Pressure Visibility Wind Dir Wind Speed Gust Speed Precip Events Conditions
12:53 AM 81.0 °F 86.7 °F 75.0 °F 82% 29.86 in 10.0 mi Calm Calm - N/A   Clear
1:53 AM 81.0 °F 86.7 °F 75.0 °F 82% 29.85 in 10.0 mi Calm Calm - N/A   Clear
2:53 AM 79.0 °F - 75.0 °F 88% 29.83 in 10.0 mi Calm Calm - N/A   Clear
3:53 AM 80.1 °F 85.1 °F 75.0 °F 85% 29.80 in 10.0 mi Calm Calm - N/A   Clear
4:53 AM 80.1 °F 85.1 °F 75.0 °F 85% 29.79 in 10.0 mi Calm Calm - N/A   Clear
5:53 AM 80.1 °F 85.1 °F 75.0 °F 85% 29.81 in 10.0 mi Calm Calm - N/A   Clear
6:53 AM 80.1 °F 85.1 °F 75.0 °F 85% 29.84 in 9.0 mi Calm Calm - N/A   Clear
7:53 AM 82.9 °F 90.2 °F 75.0 °F 77% 29.83 in 10.0 mi Variable 3.5 mph - N/A   Clear
8:53 AM 87.1 °F 96.3 °F 75.0 °F 67% 29.83 in 10.0 mi West 5.8 mph - N/A   Clear
9:53 AM 89.1 °F 99.1 °F 75.0 °F 63% 29.83 in 10.0 mi NW 9.2 mph - N/A   Clear
10:53 AM 93.0 °F 105.3 °F 75.9 °F 57% 29.83 in 10.0 mi WNW 9.2 mph - N/A   Clear
11:53 AM 95.0 °F 105.2 °F 73.9 °F 50% 29.83 in 10.0 mi NW 6.9 mph - N/A   Mostly Cloudy
12:53 PM 96.1 °F 101.6 °F 69.1 °F 41% 29.83 in 10.0 mi NNW 12.7 mph 17.3 mph N/A   Scattered Clouds
1:53 PM 100.0 °F 101.2 °F 61.0 °F 28% 29.82 in 10.0 mi North 13.8 mph 20.7 mph N/A   Clear
2:53 PM 99.0 °F 98.6 °F 59.0 °F 26% 29.80 in 10.0 mi NNW 12.7 mph 19.6 mph N/A   Clear
3:53 PM 99.0 °F 98.1 °F 57.9 °F 25% 29.79 in 10.0 mi NNE 6.9 mph 18.4 mph N/A   Clear
4:53 PM 99.0 °F 98.6 °F 59.0 °F 26% 29.78 in 10.0 mi North 10.4 mph 17.3 mph N/A   Partly Cloudy
5:53 PM 96.1 °F 95.6 °F 59.0 °F 29% 29.77 in 10.0 mi NNW 9.2 mph - N/A   Partly Cloudy
6:53 PM 95.0 °F 95.2 °F 61.0 °F 32% 29.76 in 10.0 mi NNW 10.4 mph 17.3 mph N/A   Mostly Cloudy
7:53 PM 91.9 °F 92.5 °F 62.1 °F 37% 29.76 in 10.0 mi NNW 8.1 mph - N/A   Clear
8:53 PM 90.0 °F 90.0 °F 61.0 °F 38% 29.76 in 10.0 mi NNW 6.9 mph - N/A   Clear
9:53 PM 88.0 °F 88.4 °F 62.1 °F 42% 29.77 in 10.0 mi NNW 5.8 mph - N/A   Unknown
10:53 PM 84.0 °F 85.4 °F 64.0 °F 51% 29.79 in 10.0 mi North 3.5 mph - N/A   Clear
11:53 PM 75.9 °F - 66.0 °F 71% 29.81 in 10.0 mi Calm Calm - N/A   Clear